Weather History for 03772 - November, 2012

Change the Weather History Date:

Monday, November 19, 2012

  Actual Average Record
Temperature  
Mean Temperature 42 °F -  
Max Temperature 52 °F 47 °F - ()
Min Temperature 33 °F 37 °F - ()
Degree Days  
Heating Degree Days 22    
Moisture  
Dew Point 41 °F    
Average Humidity 82    
Maximum Humidity 93    
Minimum Humidity 57    
Precipitation  
Precipitation 0.00 in - - ()
Sea Level Pressure  
Sea Level Pressure 29.84 in    
Wind  
Wind Speed 8 mph ()    
Max Wind Speed 17 mph    
Max Gust Speed -    
Visibility 7.7 miles    
Events Rain    
T = Trace of Precipitation, MM = Missing Value Source: Averaged Metar Reports

Daily Weather History Graph

Daily Weather History Graph

Search for Another Location

Airport or City:

Trip Planner

Search our weather history database for the weather conditions in past years. The results will help you decide how hot, cold, wet, or windy it might be!

Date:

Astronomy

Nov. 19, 2012 Rise Set
Actual Time 7:27 AM GMT 4:07 PM GMT
Civil Twilight 6:49 AM GMT 4:44 PM GMT
Nautical Twilight 6:08 AM GMT 5:25 PM GMT
Astronomical Twilight 5:28 AM GMT 6:05 PM GMT
Moon 12:07 PM GMT (11/19) 10:34 PM GMT (11/19)
Length of Visible Light 9h 55m
Length of Day
8h 39m
Waxing Crescent, 38% of the Moon is Illuminated
Nov 19
Waxing Crescent
Nov 20
First Quarter
Nov 28
Full
Dec 6
Last Quarter
Dec 13
New

Hourly Weather History & Observations

Time (GMT) Temp. Windchill Dew Point Humidity Pressure Visibility Wind Dir Wind Speed Gust Speed Precip Events Conditions
12:20 AM 35.6 °F - 33.8 °F 93% 29.98 in - SSE 2.3 mph - N/A   Clear
12:50 AM 35.6 °F 30.7 °F 33.8 °F 93% 29.95 in - SE 5.8 mph - N/A   Clear
1:20 AM 35.6 °F 29.9 °F 32.0 °F 87% 29.95 in - SE 6.9 mph - N/A   Clear
1:50 AM 35.6 °F 31.7 °F 32.0 °F 87% 29.95 in 6.2 mi SE 4.6 mph - N/A   Unknown
2:20 AM 35.6 °F 31.7 °F 32.0 °F 87% 29.95 in 6.2 mi SE 4.6 mph - N/A   Unknown
2:50 AM 34 °F - 32 °F 87% 29.94 in 16 mi ESE 4.6 mph - -   Scattered Clouds
2:50 AM 33.8 °F 29.6 °F 32.0 °F 93% 29.92 in 6.2 mi SE 4.6 mph - N/A   Partly Cloudy
3:20 AM 35.6 °F 31.7 °F 33.8 °F 93% 29.92 in 6.2 mi SE 4.6 mph - N/A   Overcast
3:50 AM 35.6 °F 30.7 °F 33.8 °F 93% 29.92 in 6.2 mi SE 5.8 mph - N/A   Mostly Cloudy
4:20 AM 37.4 °F 32.8 °F 35.6 °F 93% 29.89 in 6.2 mi SE 5.8 mph - N/A   Mostly Cloudy
4:50 AM 39.2 °F 35.0 °F 35.6 °F 87% 29.89 in 6.2 mi SE 5.8 mph - N/A   Scattered Clouds
5:20 AM 39.2 °F 35.9 °F 35.6 °F 87% 29.89 in 6.2 mi SE 4.6 mph - N/A   Partly Cloudy
5:50 AM 40 °F - 37 °F 84% 29.88 in 16 mi SE 5.8 mph - -  
5:50 AM 39.2 °F 35.0 °F 37.4 °F 93% 29.89 in 6.2 mi SE 5.8 mph - N/A   Partly Cloudy
6:20 AM 39.2 °F 35.0 °F 37.4 °F 93% 29.86 in 6.2 mi SSE 5.8 mph - N/A   Scattered Clouds
6:50 AM 39.2 °F 33.6 °F 37.4 °F 93% 29.86 in 6.2 mi SSE 8.1 mph - N/A   Scattered Clouds
7:20 AM 41.0 °F 37.1 °F 37.4 °F 87% 29.86 in 6.2 mi Variable 5.8 mph - N/A   Partly Cloudy
7:50 AM 42.8 °F 38.6 °F 39.2 °F 87% 29.86 in 6.2 mi SE 6.9 mph - N/A   Scattered Clouds
8:20 AM 42.8 °F 38.6 °F 39.2 °F 87% 29.86 in 6.2 mi SSE 6.9 mph - N/A   Scattered Clouds
8:50 AM 45 °F - 40 °F 78% 29.86 in 12 mi SE 6.9 mph - -   Partly Cloudy
8:50 AM 44.6 °F 40.2 °F 41.0 °F 87% 29.86 in 6.2 mi Variable 8.1 mph - N/A   Scattered Clouds
9:20 AM 46.4 °F 42.9 °F 42.8 °F 87% 29.86 in 6.2 mi SSE 6.9 mph - N/A   Partly Cloudy
9:50 AM 48.2 °F - 42.8 °F 82% 29.86 in 6.2 mi South 6.9 mph - N/A   Partly Cloudy
10:20 AM 51.8 °F - 42.8 °F 71% 29.86 in 6.2 mi South 11.5 mph - N/A   Partly Cloudy
10:50 AM 51.8 °F - 42.8 °F 71% 29.83 in 6.2 mi South 13.8 mph - N/A   Scattered Clouds
11:20 AM 51.8 °F - 41.0 °F 67% 29.83 in 6.2 mi SSW 15.0 mph - N/A   Scattered Clouds
11:50 AM 52 °F - 41 °F 57% 29.83 in 19 mi South 15.0 mph - -   Partly Cloudy
11:50 AM 51.8 °F - 41.0 °F 67% 29.83 in 6.2 mi SSW 16.1 mph - N/A   Scattered Clouds
12:20 PM 51.8 °F - 41.0 °F 67% 29.83 in 6.2 mi SSW 12.7 mph - N/A   Scattered Clouds
12:50 PM 51.8 °F - 41.0 °F 67% 29.80 in 6.2 mi South 13.8 mph - N/A   Scattered Clouds
1:20 PM 50.0 °F - 42.8 °F 76% 29.80 in 6.2 mi SSW 11.5 mph - N/A   Mostly Cloudy
1:50 PM 50.0 °F - 42.8 °F 76% 29.80 in 6.2 mi South 15.0 mph - N/A   Mostly Cloudy
2:20 PM 51.8 °F - 42.8 °F 71% 29.80 in 6.2 mi South 12.7 mph - N/A   Mostly Cloudy
2:50 PM 51 °F - 44 °F 68% 29.81 in 18 mi South 12.7 mph - -   Partly Cloudy
2:50 PM 50.0 °F - 42.8 °F 76% 29.80 in 6.2 mi South 12.7 mph - N/A   Mostly Cloudy
3:20 PM 50.0 °F - 42.8 °F 76% 29.80 in 6.2 mi South 12.7 mph - N/A   Mostly Cloudy
3:50 PM 50.0 °F - 44.6 °F 82% 29.80 in 6.2 mi South 12.7 mph - N/A   Mostly Cloudy
4:20 PM 50.0 °F - 44.6 °F 82% 29.80 in 6.2 mi SSW 12.7 mph - N/A Rain Light Rain
4:50 PM 50.0 °F - 44.6 °F 82% 29.80 in 6.2 mi SSW 12.7 mph - N/A   Mostly Cloudy
5:20 PM 50.0 °F - 44.6 °F 82% 29.80 in 6.2 mi South 15.0 mph - N/A   Mostly Cloudy
5:50 PM 51 °F - 45 °F 73% 29.81 in 15 mi South 13.8 mph - -   Overcast
5:50 PM 50.0 °F - 44.6 °F 82% 29.80 in 6.2 mi South 15.0 mph - N/A   Mostly Cloudy
6:20 PM 51.8 °F - 44.6 °F 76% 29.80 in 6.2 mi South 13.8 mph - N/A   Mostly Cloudy
6:50 PM 51.8 °F - 44.6 °F 76% 29.80 in 6.2 mi South 15.0 mph - N/A   Scattered Clouds
7:20 PM 51.8 °F - 46.4 °F 82% 29.80 in 6.2 mi South 15.0 mph - N/A   Mostly Cloudy
7:50 PM 51.8 °F - 46.4 °F 82% 29.80 in 6.2 mi South 15.0 mph - N/A   Mostly Cloudy
8:20 PM 51.8 °F - 48.2 °F 88% 29.80 in 6.2 mi South 15.0 mph - N/A   Mostly Cloudy
8:50 PM 51 °F - 48 °F 85% 29.81 in 19 mi South 17.3 mph - -   Partly Cloudy
8:50 PM 51.8 °F - 48.2 °F 88% 29.80 in 6.2 mi South 15.0 mph - N/A   Mostly Cloudy
9:20 PM 51.8 °F - 48.2 °F 88% 29.80 in 6.2 mi SSW 16.1 mph - N/A   Mostly Cloudy
9:50 PM 51.8 °F - 48.2 °F 88% 29.80 in 6.2 mi SSW 13.8 mph - N/A   Mostly Cloudy
10:20 PM 51.8 °F - 48.2 °F 88% 29.80 in 6.2 mi South 13.8 mph - N/A   Mostly Cloudy
10:50 PM 51.8 °F - 48.2 °F 88% 29.80 in 6.2 mi SSW 12.7 mph - N/A   Mostly Cloudy
11:20 PM 51.8 °F - 48.2 °F 88% 29.80 in 6.2 mi South 12.7 mph - N/A   Mostly Cloudy
11:50 PM 52 °F - 48 °F 83% 29.81 in 15 mi South 12.7 mph - -   Overcast
11:50 PM 51.8 °F - 48.2 °F 88% 29.80 in 6.2 mi South 11.5 mph - N/A   Mostly Cloudy